Location: Kumla
(59.1265°N, 15.1401°E)
Time: 05:15:28
(UTC+01:00)

Vanguard 2 Rocket - Pass Details

Date: 12 December 2023
Orbit: 555 x 3309 km, 32.9° (Epoch: 03 March)

Event Time Altitude Azimuth Distance (km) Brightness Sun altitude
Rises 15:56:29 0° 250° (WSW) 6,347 13.0 -6.1°
Reaches altitude 10° 16:01:24 10° 239° (WSW) 5,672 12.8 -6.6°
Maximum altitude 16:14:42 26° 192° (SSW) 4,951 11.2 -8.1°
Drops below altitude 10° 16:29:06 10° 146° (SE) 6,136 11.1 -9.6°
Sets 16:34:46 0° 136° (SE) 6,942 11.2 -10.3°
